Regional Weather Roundup
Issued by NWS

Home | Current Version | Previous Version | Text Only | Print | Product List | Glossary Off
Versions: 1 2 3 4 5 6 7 8 9 10 11 12 13 14 15 16 17 18 19 20 21 22 23 24 25 26 27 28 29 30 31 32 33 34 35 36 37 38 39 40 41 42 43 44 45 46 47 48 49 50

000
ASUS43 KMKX 220403
RWRWI

WISCONSIN REGIONAL WEATHER ROUNDUP
NATIONAL WEATHER SERVICE MILWAUKEE/SULLIVAN WI
1100 PM CDT THU MAY 21 2015

NOTE: "FAIR" INDICATES FEW OR NO CLOUDS BELOW 12,000 FEET WITH NO
SIGNIFICANT WEATHER AND/OR OBSTRUCTIONS TO VISIBILITY.

WIZ001-002-006>008-014>016-023>028-220500-
NORTHWEST WISCONSIN

CITY           SKY/WX    TMP DP  RH WIND       PRES   REMARKS
SUPERIOR ARPT  CLEAR     52  32  46 E3        30.07R
ASHLAND        CLEAR     42  36  79 W3        30.07R
HAYWARD        CLEAR     45  35  68 N3        30.07R
SIREN          CLEAR     48  36  64 CALM      30.07R
CUMBERLAND     CLEAR     52  32  46 NW6       30.07R
RICE LAKE      CLEAR     49  42  76 CALM      30.07R
CHETEK         CLEAR     49  39  68 CALM      30.06R
LADYSMITH      CLEAR     48  37  64 CALM      30.07R
EAU CLAIRE     NOT AVBL
MENOMONIE      CLEAR     58  36  44 W6        30.05R
NEW RICHMOND   CLEAR     54  34  47 NW7       30.08R
OSCEOLA        CLEAR     49  40  71 CALM      30.10R
$$

WIZ003>005-009-010-017-018-220500-
NORTH CENTRAL WISCONSIN

CITY           SKY/WX    TMP DP  RH WIND       PRES   REMARKS
MANITOWISH WTR CLEAR     39  35  83 CALM      30.05R
ARBOR VITAE    CLEAR     44  33  64 CALM      30.05R
WOODRUFF       CLEAR     44  33  64 CALM      30.05R
RHINELANDER    CLEAR     40  31  70 CALM      30.06R
EAGLE RIVER    CLEAR     40  31  71 CALM      30.04R
LAND O LAKES   CLEAR     37  32  82 CALM      30.06R
PHILLIPS       CLEAR     43  36  74 CALM      30.05R
TOMAHAWK       CLEAR     38  32  78 CALM      30.05R
MEDFORD        CLEAR     43  33  68 CALM      30.05R
MERRILL        CLEAR     41  33  74 CALM      30.06R
$$

WIZ029-030-035-036-043>047-220500-
CENTRAL WISCONSIN

CITY           SKY/WX    TMP DP  RH WIND       PRES   REMARKS
WAUSAU         CLEAR     48  33  56 CALM      30.03R
MOSINEE        CLEAR     52  28  40 NE3       30.05R
MARSHFIELD     CLEAR     54  31  41 NE3       30.04R
STEVENS POINT  CLEAR     51  32  48 E6        30.05R
WAUPACA        CLEAR     54  39  57 E8        30.06R
WAUTOMA        NOT AVBL
WISC RAPIDS    CLEAR     53  28  38 NE5       30.05R
CAMP DOUGLAS   NOT AVBL
$$

WIZ011>013-019>022-031-037>040-048>050-220500-
NORTHEAST WISCONSIN

CITY           SKY/WX    TMP DP  RH WIND       PRES   REMARKS
ANTIGO         CLEAR     43  33  68 CALM      30.05R
SHAWANO        CLEAR     48  36  63 CALM      30.06S
OCONTO         CLEAR     39  37  93 CALM      30.06R
STURGEON BAY   CLEAR     45  28  53 E3        30.08R
GREEN BAY      CLEAR     48  33  56 CALM      30.06R
MANITOWOC      NOT AVBL
APPLETON       CLEAR     50  28  43 E8        30.06R
CLINTONVILLE   CLEAR     43  36  75 S3        30.06R
OSHKOSH        PTCLDY    52  32  46 E7        30.05R
$$

WIZ032>034-041-042-053>061-220500-
SOUTHWEST WISCONSIN

CITY           SKY/WX    TMP DP  RH WIND       PRES   REMARKS
LA CROSSE      CLEAR     57  45  64 CALM      30.04R
SPARTA         CLEAR     47  40  77 E7        30.05R
VIROQUA        CLEAR     55  39  54 N3        30.05R
BOSCOBEL       CLEAR     53  43  68 CALM      30.04R
PRAIRIE DU CHI CLEAR     52  40  62 CALM      30.04R
PLATTEVILLE    CLEAR     58  35  41 CALM      30.03S
$$

WIZ056-057-062-063-064-067-068-220500-
SOUTH CENTRAL WISCONSIN

CITY           SKY/WX    TMP DP  RH WIND       PRES   REMARKS
REEDSBURG      CLEAR     58  38  46 NW3       30.03R
BARABOO/DELLS  CLEAR     54  36  50 CALM      30.03R
LONE ROCK      NOT AVBL
MINERAL POINT  CLEAR     59  32  36 NW5       30.03R
MADISON        PTCLDY    60  43  53 NW6       30.01R
MIDDLETON      CLEAR     55  42  61 W8        30.01R
WATERTOWN      PTCLDY    61  44  53 SW6       29.98S
MONROE         CLEAR     59  45  58 SW9       30.02R
JANESVILLE     CLEAR     57  41  54 SW6       30.00R
$$

WIZ051-052-058>065-066-070>072-220500-
SOUTHEAST WISCONSIN

CITY           SKY/WX    TMP DP  RH WIND       PRES   REMARKS
MILWAUKEE      LGT RAIN  53  42  66 VRB3      30.04R
WAUKESHA       MOCLDY    54  46  76 E6        30.03R
MILWAUKEE/TIMM LGT RAIN  52  37  58 CALM      30.04R
RACINE         LGT RAIN  51  44  77 N14       30.07R
BURLINGTON     MOCLDY    58  41  52 SW7       29.99S
KENOSHA        LGT RAIN  61  43  51 N13G20    30.02R
FOND DU LAC    PTCLDY    51  30  44 E9        30.06R
SHEBOYGAN      MOCLDY    46  33  60 NE12      30.05R
WEST BEND      CLOUDY    50  36  57 NE6       30.04R
JUNEAU         PTCLDY    57  45  63 NE12      30.02R
$$

LSZ147-162-220500-
LAKE SUPERIOR

STATION/POSITION TIME  TEMP    WIND        PRES    WAVE
                       AIR SEA DIR/SP/G            HT/PER
                 (UTC) (F)     (DEG/KT/KT) (MB)    (FT/S)
W MID LAKE BUOY  0250   39 36  100/  8/  8   N/A     0
DEVILS ISLAND    0300   53      20/  2/  3   N/A
PORT WING        0300   47      CALM  /  3   N/A
SAXON HARBOR     0300   47     200/  4/  5   N/A
$$

LMZ867-665-643>646-220500-
LAKE MICHIGAN

STATION/POSITION TIME  TEMP    WIND        PRES    WAVE
                       AIR SEA DIR/SP/G            HT/PER
                 (UTC) (F)     (DEG/KT/KT) (MB)    (FT/S)
CHAMBERS ISLAND  0300   51      40/  8/ 11   N/A
N MID LAKE BUOY  0250   43 36  340/  4/  6   N/A     1/ 4
NORTHPORT PIER   0340   49     360/  6/  9   N/A
SISTER BAY       0317   48      80/  4/  7   N/A
KEWAUNEE LAKESHO 0300           40/  5/  8   N/A
SHEBOYGAN LAKESH 0300           10/ 12/ 13   N/A
PORT WASHINGTON  0340   51      30/  7/ 10   N/A
ATWATER BUOY     0300   49 44   10/ 17/ 21   N/A
MILWAUKEE LAKESH 0300           10/ 16/ 20   N/A
S MID LAKE BUOY  0250   45 38  210/ 12/ 12   N/A     1/ 4
KENOSHA   LAKESH 0200   65     230/  7/ 14   N/A
$$

TC  - TEMPERATURE IN CELSIUS
VSB - VISIBILITY IN STATUTE MILES
WCI - WIND CHILL INDEX
HX  - HEAT INDEX




USA.gov is the U.S. government's official web portal to all federal, state and local government web resources and services.